This is the latest recevied weather packets stored in our database for station/object SP5FLS-15. If no packets are shown the sender has not sent any weather packets the latest 10 day(s).
| Time | Temp. | Humidity | Pressure | Rain* | Wind** | Luminosity | Snow |
|---|---|---|---|---|---|---|---|
| 1777687802 | 5.56° C | 48% | 1021.7 hPa | - | - | - | - |
| 1777687502 | 5.56° C | 48% | 1021.6 hPa | - | - | - | - |
| 1777687202 | 5.56° C | 48% | 1021.8 hPa | - | - | - | - |
| 1777686902 | 5.56° C | 50% | 1021.9 hPa | - | - | - | - |
| 1777686602 | 5.56° C | 49% | 1021.7 hPa | - | - | - | - |
| 1777686301 | 5.56° C | 49% | 1021.7 hPa | - | - | - | - |
| 1777686002 | 5.56° C | 49% | 1021.8 hPa | - | - | - | - |
| 1777685702 | 5.56° C | 50% | 1021.8 hPa | - | - | - | - |
| 1777685402 | 5.56° C | 52% | 1021.8 hPa | - | - | - | - |
| 1777685102 | 5.56° C | 48% | 1021.8 hPa | - | - | - | - |
| 1777684802 | 5.56° C | 51% | 1021.9 hPa | - | - | - | - |
| 1777684502 | 5.56° C | 53% | 1021.8 hPa | - | - | - | - |
| 1777684202 | 5.56° C | 53% | 1021.9 hPa | - | - | - | - |
| 1777683902 | 5.56° C | 53% | 1022 hPa | - | - | - | - |
| 1777683602 | 5.56° C | 53% | 1022 hPa | - | - | - | - |
| 1777683302 | 5.56° C | 53% | 1022 hPa | - | - | - | - |
| 1777683002 | 5.56° C | 56% | 1022.1 hPa | - | - | - | - |
| 1777682702 | 5.56° C | 58% | 1022 hPa | - | - | - | - |
| 1777682402 | 5.56° C | 61% | 1022 hPa | - | - | - | - |
| 1777682102 | 5.56° C | 64% | 1021.9 hPa | - | - | - | - |
| 1777681802 | 5.56° C | 63% | 1022 hPa | - | - | - | - |
| 1777681502 | 5.56° C | 63% | 1022 hPa | - | - | - | - |
| 1777681202 | 5.56° C | 63% | 1022.4 hPa | - | - | - | - |
| 1777680902 | 5.56° C | 66% | 1022.2 hPa | - | - | - | - |
| 1777680602 | 5.56° C | 68% | 1022.1 hPa | - | - | - | - |
* Rain since midnight (hover to see other rain measurements)
** Current wind speed in m/s (hover to see current wind gust speed)